Location: Blackfoot
(53.5367°N, 112.7800°W)
Time: 17:34:40
(UTC-07:00)

Amateur Radio Satellites - All Passes

Search period start: 16 December 2017 17:04
Search period end: 17 December 2017 17:04
Location: Blackfoot, 53.5367°N, 112.7800°W

Satellite Date Start Highest point End Downlink Frequencies (MHz)
Time Altitude Azimuth
NUDT-PHONESAT 16 Dec 17:07:34 17:10:56 33° 67° (ENE) 17:14:20 437.300
YUBILEINY 16 Dec 17:11:38 17:15:44 14° 294° (WNW) 17:19:51 435.215
XW-2D 16 Dec 17:12:44 17:16:28 55° 71° (ENE) 17:20:14 145.860 - 145.880
KAITUO 1B 16 Dec 17:15:11 17:18:45 42° 68° (ENE) 17:22:21 145.475/437.950
ITUPSAT 1 16 Dec 17:15:21 17:19:47 40° 296° (WNW) 17:24:14 437.325
SEEDS 16 Dec 17:18:11 17:20:47 16° 56° (NE) 17:23:23 437.485
CUBEBUG 2 16 Dec 17:21:10 17:23:43 16° 56° (ENE) 17:26:17 437.445
CUTE-I 16 Dec 17:27:11 17:32:31 69° 70° (ENE) 17:37:53 437.470
XW-2B 16 Dec 17:28:37 17:32:25 77° 74° (ENE) 17:36:17 145.730 - 145.750
PCSat 16 Dec 17:30:14 17:32:30 13° 103° (ESE) 17:34:46 145.827
AAUSAT CUBESAT 2 16 Dec 17:31:45 17:32:53 11° 51° (NE) 17:34:01 437.432
nSIGHT-1 16 Dec 17:32:32 17:34:02 13° 218° (SW) 17:35:31 .
CUBESAT XI-V 16 Dec 17:34:20 17:38:57 54° 292° (WNW) 17:43:34 437.345
DOVE 4 16 Dec 17:38:13 17:42:34 26° 268° (W) 17:46:48 437.250
KKS-1 16 Dec 17:38:27 17:42:41 42° 98° (E) 17:46:52 437.445
XW-2F 16 Dec 17:38:39 17:42:27 89° 266° (W) 17:46:18 145.980 - 146.000
SO-50 16 Dec 17:41:28 17:45:40 38° 330° (NNW) 17:49:58 436.795
MOZHAYETS 4 16 Dec 17:43:10 17:46:15 18° 305° (NW) 17:49:20
CUTE 1.7 + AOD 2 16 Dec 17:44:00 17:47:54 36° 66° (ENE) 17:51:51 437.475
XW-2C 16 Dec 17:56:18 18:00:02 54° 260° (W) 18:03:50 145.795 - 145.815
AO-73 16 Dec 18:08:44 18:10:59 14° 54° (NE) 18:13:16 145.935
STARS 16 Dec 18:14:53 18:19:02 40° 98° (E) 18:23:08 437.465
O/OREOS (USA 219) 16 Dec 18:20:47 18:25:03 42° 249° (WSW) 18:29:16 437.305
BEESAT 16 Dec 18:24:30 18:26:56 14° 311° (NW) 18:29:23 436.000
HO-68 16 Dec 18:30:34 18:37:47 82° 252° (WSW) 18:45:02 435.675
RS-15 16 Dec 18:35:09 18:47:07 52° 347° (NNW) 18:58:39 29.354- 29.394
LilacSat-2 16 Dec 18:36:44 18:39:44 21° 268° (W) 18:42:47 437.200
XW-2A 16 Dec 18:39:45 18:42:46 31° 67° (ENE) 18:45:50 145.665 - 145.685
NUDT-PHONESAT 16 Dec 18:41:39 18:44:50 26° 266° (W) 18:48:03 437.300
XW-2D 16 Dec 18:48:20 18:50:57 18° 270° (W) 18:53:36 145.860 - 145.880
KAITUO 1B 16 Dec 18:49:55 18:52:54 22° 268° (W) 18:55:54 145.475/437.950
UWE-3 16 Dec 18:50:26 18:54:28 56° 70° (ENE) 18:58:34 435.000/436.395/437.385
SEEDS 16 Dec 18:51:38 18:55:53 86° 251° (WSW) 19:00:11 437.485
STRAND 1 16 Dec 18:52:50 18:56:13 18° 87° (E) 18:59:35 437.568
CUBEBUG 2 16 Dec 18:55:40 18:59:50 81° 256° (WSW) 19:04:01 437.445
AAUSAT CUBESAT 2 16 Dec 19:03:23 19:07:30 61° 72° (ENE) 19:11:40 437.432
XW-2B 16 Dec 19:05:17 19:07:06 13° 273° (W) 19:08:57 145.730 - 145.750
CUTE-I 16 Dec 19:08:50 19:13:05 23° 270° (W) 19:17:21 437.470
PCSat 16 Dec 19:09:30 19:14:50 62° 123° (ESE) 19:20:13 145.827
ZACube-1 16 Dec 19:10:09 19:14:08 49° 69° (ENE) 19:18:12 437.345
BEESAT 3 16 Dec 19:11:53 19:13:11 11° 111° (ESE) 19:14:30 437.485
CUBESAT XI-V 16 Dec 19:13:44 19:15:21 12° 312° (NW) 19:16:59 437.345
KKS-1 16 Dec 19:15:15 19:19:08 30° 298° (WNW) 19:23:00 437.445
XW-2F 16 Dec 19:16:11 19:17:11 11° 275° (W) 19:18:10 145.980 - 146.000
CUTE 1.7 + AOD 2 16 Dec 19:19:56 19:23:46 32° 265° (W) 19:27:39 437.475
SO-50 16 Dec 19:23:46 19:27:16 21° 354° (N) 19:30:49 436.795
Oscar 11 16 Dec 19:25:32 19:29:38 44° 68° (ENE) 19:33:48 .
AO-73 16 Dec 19:42:27 19:46:36 87° 71° (ENE) 19:50:49 145.935
DELFI C3 16 Dec 19:44:24 19:47:07 18° 59° (ENE) 19:49:50 145.870
STARS 16 Dec 19:51:27 19:55:16 30° 298° (WNW) 19:59:05 437.465
BEESAT 2 16 Dec 19:58:54 19:59:00 10° 110° (ESE) 19:59:07 435.950
FO-29 16 Dec 20:02:07 20:08:07 29° 88° (E) 20:13:31 435.910
XW-2A 16 Dec 20:12:46 20:15:31 23° 266° (W) 20:18:19 145.665 - 145.685
HO-68 16 Dec 20:21:27 20:26:38 21° 274° (W) 20:31:51 435.675
UWE-3 16 Dec 20:28:16 20:31:18 19° 270° (W) 20:34:21 435.000/436.395/437.385
SEEDS 16 Dec 20:30:26 20:32:15 12° 275° (W) 20:34:04 437.485
STRAND 1 16 Dec 20:30:57 20:36:06 86° 285° (WNW) 20:41:12 437.568
CUBEBUG 2 16 Dec 20:36:05 20:37:12 11° 276° (W) 20:38:17 437.445
AAUSAT CUBESAT 2 16 Dec 20:40:21 20:43:20 19° 271° (W) 20:46:20 437.432
BEESAT 3 16 Dec 20:46:01 20:50:00 69° 130° (SE) 20:53:59 437.485
ZACube-1 16 Dec 20:47:28 20:50:43 22° 269° (W) 20:54:01 437.345
RS-15 16 Dec 20:50:21 21:02:16 55° 19° (NNE) 21:13:36 29.354- 29.394
PCSat 16 Dec 20:53:29 20:58:33 39° 325° (NW) 21:03:39 145.827
Max Valier Satellite 16 Dec 20:57:11 21:00:46 54° 71° (ENE) 21:04:24 145.860
Oscar 11 16 Dec 21:02:18 21:05:58 26° 267° (W) 21:09:39 .
SO-50 16 Dec 21:05:13 21:09:05 26° 19° (NNE) 21:13:01 436.795
AO-85 16 Dec 21:15:07 21:17:24 15° 112° (ESE) 21:19:46 145.980
DELFI C3 16 Dec 21:17:27 21:21:26 67° 258° (WSW) 21:25:26 145.870
EO-88 16 Dec 21:19:19 21:22:57 67° 73° (ENE) 21:26:37 145.990 - 145.960
AO-73 16 Dec 21:21:36 21:23:29 13° 274° (W) 21:25:24 145.935
BEESAT 2 16 Dec 21:31:54 21:35:54 61° 129° (SE) 21:39:56 435.950
LO-87 16 Dec 21:42:59 21:45:40 21° 62° (ENE) 21:48:21 145.935 - 145.965
FO-29 16 Dec 21:46:46 21:53:53 70° 292° (WNW) 22:00:07 435.910
ESTCUBE 1 16 Dec 21:54:56 21:58:47 28° 61° (ENE) 22:02:41 437.505/2401.250
PRISM 16 Dec 21:59:19 22:01:09 13° 87° (E) 22:02:57 437.425
TIGRISAT 16 Dec 22:00:39 22:04:41 36° 97° (E) 22:08:47 435.000
UNISAT 6 16 Dec 22:04:34 22:08:44 43° 98° (E) 22:12:57 437.425
SPROUT 16 Dec 22:05:28 22:06:54 12° 51° (NE) 22:08:19 437.525
STRAND 1 16 Dec 22:11:08 22:14:36 19° 308° (NW) 22:18:05 437.568
BEESAT 3 16 Dec 22:24:19 22:27:51 29° 332° (NNW) 22:31:23 437.485
Max Valier Satellite 16 Dec 22:32:31 22:34:55 16° 270° (W) 22:37:21 145.860
PCSat 16 Dec 22:39:22 22:43:25 21° 350° (N) 22:47:28 145.827
SO-50 16 Dec 22:45:40 22:50:18 68° 41° (NE) 22:54:59 436.795
AO-85 16 Dec 22:53:05 22:57:06 88° 126° (SE) 23:01:26 145.980
EO-88 16 Dec 22:55:07 22:57:01 14° 272° (W) 22:58:57 145.990 - 145.960
RS-15 16 Dec 23:03:50 23:15:53 84° 230° (SW) 23:27:14 29.354- 29.394
BEESAT 2 16 Dec 23:10:13 23:13:53 32° 330° (NNW) 23:17:35 435.950
LO-87 16 Dec 23:15:28 23:18:51 42° 261° (W) 23:22:15 145.935 - 145.965
VELOX 1 16 Dec 23:17:14 23:21:07 30° 62° (ENE) 23:25:00 145.980
NANOSAT C BR1 16 Dec 23:30:50 23:33:13 15° 88° (E) 23:35:35 145.865
ESTCUBE 1 16 Dec 23:31:03 23:35:25 47° 261° (W) 23:39:50 437.505/2401.250
AIST 2D 16 Dec 23:32:06 23:35:30 40° 98° (E) 23:38:52 435.315
FO-29 16 Dec 23:32:37 23:37:43 21° 316° (NW) 23:42:27 435.910
PRISM 16 Dec 23:32:54 23:37:03 88° 276° (W) 23:41:08 437.425
TIGRISAT 16 Dec 23:37:29 23:41:21 33° 296° (WNW) 23:45:17 435.000
SPROUT 16 Dec 23:37:47 23:41:58 63° 71° (ENE) 23:46:11 437.525
UNISAT 6 16 Dec 23:41:35 23:45:19 29° 297° (WNW) 23:49:06 437.425
UKube-1 16 Dec 23:46:11 23:47:57 12° 50° (NE) 23:49:44 .
EO-79 16 Dec 23:47:12 23:50:35 23° 92° (E) 23:53:56 145.935-145.965
BEESAT 3 17 Dec 00:03:54 00:06:31 17° 355° (N) 00:09:08 437.485
DX 1 17 Dec 00:05:15 00:08:46 24° 59° (ENE) 00:12:16 434.975-435.025
POLYITAN 1 17 Dec 00:10:36 00:14:31 36° 97° (E) 00:18:26 437.675
PCSat 17 Dec 00:24:23 00:28:40 23° 16° (NNE) 00:32:57 145.827
SO-50 17 Dec 00:26:34 00:30:28 27° 241° (WSW) 00:34:23 436.795
AO-85 17 Dec 00:34:28 00:38:03 27° 337° (NNW) 00:41:52 145.980
QB50P2 17 Dec 00:36:24 00:40:38 69° 103° (ESE) 00:44:51 145.880/145.840
DUCHIFAT 1 17 Dec 00:37:16 00:41:23 50° 100° (E) 00:45:28 145.980
BEESAT 17 Dec 00:46:52 00:48:03 11° 46° (NE) 00:49:14 436.000
BEESAT 2 17 Dec 00:49:58 00:52:43 17° 353° (N) 00:55:28 435.950
VELOX 1 17 Dec 00:53:12 00:57:26 42° 262° (W) 01:01:42 145.980
Oscar 19 17 Dec 00:55:40 00:59:05 17° 87° (E) 01:02:30 437.125/150
NANOSAT C BR1 17 Dec 01:05:15 01:09:28 79° 287° (WNW) 01:13:41 145.865
AIST 2D 17 Dec 01:05:42 01:08:27 21° 297° (WNW) 01:11:12 435.315
BUGSAT 1 17 Dec 01:07:43 01:11:15 28° 95° (E) 01:14:46 437.445
50 SAT 17 Dec 01:07:50 01:11:01 77° 75° (ENE) 01:14:12 437.505
PRISM 17 Dec 01:09:25 01:11:42 15° 306° (NW) 01:13:59 437.425
ITUPSAT 1 17 Dec 01:14:49 01:17:48 17° 52° (NE) 01:20:47 437.325
SPROUT 17 Dec 01:15:18 01:18:17 18° 270° (W) 01:21:16 437.525
RS-15 17 Dec 01:17:05 01:26:42 31° 256° (WSW) 01:35:55 29.354- 29.394
UKube-1 17 Dec 01:18:54 01:23:10 65° 71° (ENE) 01:27:29 .
EO-79 17 Dec 01:22:30 01:26:36 50° 291° (WNW) 01:30:40 145.935-145.965
CUBESAT XI-V 17 Dec 01:33:44 01:34:33 10° 47° (NE) 01:35:23 437.345
MOZHAYETS 4 17 Dec 01:36:41 01:40:33 28° 61° (ENE) 01:44:28
DX 1 17 Dec 01:40:21 01:44:39 55° 258° (WSW) 01:48:59 434.975-435.025
BEESAT 3 17 Dec 01:42:15 01:45:21 21° 19° (NNE) 01:48:23 437.485
POLYITAN 1 17 Dec 01:46:30 01:50:15 32° 296° (WNW) 01:54:01 437.675
Gurwin Techsat 1B 17 Dec 01:57:37 02:02:38 39° 97° (E) 02:07:35 435.225
PCSat 17 Dec 02:07:57 02:13:16 51° 41° (NE) 02:18:34 145.827
QB50P2 17 Dec 02:13:01 02:15:59 19° 302° (WNW) 02:18:58 145.880/145.840
AO-91 17 Dec 02:13:16 02:16:46 65° 101° (ESE) 02:20:08 145.960
DUCHIFAT 1 17 Dec 02:13:26 02:16:47 24° 299° (WNW) 02:20:09 145.980
AO-85 17 Dec 02:16:35 02:19:47 19° 2° (N) 02:23:09 145.980
BEESAT 17 Dec 02:20:13 02:24:47 48° 66° (ENE) 02:29:22 436.000
YUBILEINY 17 Dec 02:24:55 02:32:56 41° 84° (E) 02:40:58 435.215
BEESAT 2 17 Dec 02:28:38 02:31:46 21° 17° (NNE) 02:34:52 435.950
AO-7 17 Dec 02:29:02 02:34:33 19° 84° (E) 02:40:02 .
Oscar 19 17 Dec 02:33:53 02:39:08 88° 288° (WNW) 02:44:21 437.125/150
NANOSAT C BR1 17 Dec 02:42:24 02:44:30 14° 307° (NW) 02:46:37 145.865
BUGSAT 1 17 Dec 02:42:57 02:46:41 37° 294° (WNW) 02:50:26 437.445
ITUPSAT 1 17 Dec 02:50:11 02:54:57 82° 70° (ENE) 02:59:45 437.325
UKube-1 17 Dec 02:56:34 02:59:37 19° 270° (W) 03:02:41 .
CUBESAT XI-V 17 Dec 03:06:22 03:10:52 48° 67° (ENE) 03:15:24 437.345
KKS-1 17 Dec 03:08:06 03:10:46 16° 53° (NE) 03:13:26 437.445
MOZHAYETS 4 17 Dec 03:13:06 03:17:31 48° 261° (W) 03:21:59
BEESAT 3 17 Dec 03:19:39 03:23:35 61° 41° (NE) 03:27:28 437.485
M-CUBED/EXP-1 PRIME 17 Dec 03:25:56 03:28:57 17° 94° (E) 03:31:52 437.505
Gurwin Techsat 1B 17 Dec 03:37:38 03:42:38 42° 297° (WNW) 03:47:36 435.225
STARS 17 Dec 03:43:25 03:45:52 15° 53° (NE) 03:48:18 437.465
AO-91 17 Dec 03:50:57 03:52:49 14° 304° (WNW) 03:54:38 145.960
PCSat 17 Dec 03:51:33 03:56:38 41° 242° (WSW) 04:01:41 145.827
ITAMSAT 1 17 Dec 03:52:03 03:56:49 35° 96° (E) 04:01:32 435.822/435.867
AO-85 17 Dec 03:57:26 04:01:27 30° 26° (NNE) 04:05:44 145.980
BEESAT 17 Dec 03:58:41 04:02:47 28° 266° (W) 04:06:54 436.000
BEESAT 2 17 Dec 04:06:15 04:10:16 56° 40° (NE) 04:14:13 435.950
Oscar 19 17 Dec 04:14:08 04:17:49 20° 307° (NW) 04:21:30 437.125/150
AO-7 17 Dec 04:20:33 04:28:56 69° 106° (ESE) 04:37:18 .
YUBILEINY 17 Dec 04:20:41 04:29:26 62° 288° (WNW) 04:38:15 435.215
ITUPSAT 1 17 Dec 04:30:21 04:33:24 17° 272° (W) 04:36:28 437.325
STRAND 1 17 Dec 04:39:42 04:41:14 11° 44° (NE) 04:42:46 437.568
FO-29 17 Dec 04:40:35 04:43:31 13° 32° (NNE) 04:46:24 435.910
KKS-1 17 Dec 04:42:13 04:46:42 85° 73° (ENE) 04:51:11 437.445
CUBESAT XI-V 17 Dec 04:44:26 04:48:26 28° 267° (W) 04:52:31 437.345
BEESAT 3 17 Dec 04:57:39 05:00:49 23° 241° (WSW) 05:03:57 437.485
M-CUBED/EXP-1 PRIME 17 Dec 04:59:17 05:03:52 77° 295° (WNW) 05:08:11 437.505
STARS 17 Dec 05:17:08 05:21:32 80° 72° (ENE) 05:25:57 437.465
Gurwin Techsat 1B 17 Dec 05:20:06 05:21:18 11° 318° (NW) 05:22:30 435.225
XW-2C 17 Dec 05:24:07 05:25:22 11° 86° (E) 05:26:37 145.795 - 145.815
DOVE 4 17 Dec 05:29:42 05:34:14 60° 101° (E) 05:38:29 437.250
ITAMSAT 1 17 Dec 05:31:29 05:36:25 44° 296° (WNW) 05:41:18 435.822/435.867
AO-85 17 Dec 05:37:42 05:42:22 86° 222° (SW) 05:47:22 145.980
CUTE-I 17 Dec 05:38:40 05:42:04 17° 86° (E) 05:45:27 437.470
BEESAT 2 17 Dec 05:44:20 05:47:46 27° 240° (WSW) 05:51:07 435.950
HO-68 17 Dec 05:52:59 05:56:39 14° 81° (E) 06:00:18 435.675
LilacSat-2 17 Dec 06:02:33 06:05:58 28° 95° (E) 06:09:20 437.200
NUDT-PHONESAT 17 Dec 06:05:00 06:07:49 20° 91° (E) 06:10:37 437.300
XW-2D 17 Dec 06:12:50 06:16:23 33° 96° (E) 06:19:53 145.860 - 145.880
KAITUO 1B 17 Dec 06:13:42 06:16:54 25° 93° (E) 06:20:04 145.475/437.950
AO-7 17 Dec 06:13:43 06:21:21 42° 310° (NW) 06:29:00 .
STRAND 1 17 Dec 06:14:24 06:19:17 46° 65° (ENE) 06:24:10 437.568
FO-29 17 Dec 06:19:40 06:26:29 34° 54° (NE) 06:33:07 435.910
KKS-1 17 Dec 06:21:18 06:23:52 15° 273° (W) 06:26:26 437.445
YUBILEINY 17 Dec 06:22:13 06:28:26 20° 315° (NW) 06:34:43 435.215
XW-2B 17 Dec 06:28:43 06:32:27 46° 98° (E) 06:36:11 145.730 - 145.750
SEEDS 17 Dec 06:30:59 06:32:16 11° 84° (E) 06:33:34 437.485
M-CUBED/EXP-1 PRIME 17 Dec 06:34:37 06:37:31 17° 314° (NW) 06:40:20 437.505
XW-2F 17 Dec 06:38:09 06:41:57 55° 100° (E) 06:45:43 145.980 - 146.000
CUBEBUG 2 17 Dec 06:40:45 06:43:01 14° 87° (E) 06:45:19 437.445
STARS 17 Dec 06:55:50 06:58:26 15° 272° (W) 07:01:04 437.465
XW-2C 17 Dec 06:56:15 07:00:09 90° 297° (WNW) 07:04:00 145.795 - 145.815
CUTE 1.7 + AOD 2 17 Dec 06:57:50 07:01:39 29° 94° (E) 07:05:25 437.475
DOVE 4 17 Dec 07:08:01 07:11:32 22° 302° (WNW) 07:14:54 437.250
ITAMSAT 1 17 Dec 07:13:13 07:14:41 11° 317° (NW) 07:16:09 435.822/435.867
NO-84 17 Dec 07:14:13 07:17:07 39° 149° (SSE) 07:20:16 435.350 FM
CUTE-I 17 Dec 07:17:32 07:22:55 88° 106° (ESE) 07:28:15 437.470
AO-85 17 Dec 07:18:57 07:22:17 19° 245° (WSW) 07:25:46 145.980
AO-73 17 Dec 07:25:23 07:27:00 12° 85° (E) 07:28:37 145.935
XW-2A 17 Dec 07:27:57 07:29:58 15° 90° (E) 07:31:59 145.665 - 145.685
TIGRISAT 17 Dec 07:31:54 07:33:32 12° 52° (NE) 07:35:12 435.000
UNISAT 6 17 Dec 07:35:24 07:37:34 14° 53° (NE) 07:39:44 437.425
LilacSat-2 17 Dec 07:36:43 07:40:17 34° 294° (WNW) 07:43:49 437.200
NUDT-PHONESAT 17 Dec 07:38:15 07:41:53 47° 290° (WNW) 07:45:30 437.300
HO-68 17 Dec 07:38:49 07:45:57 61° 103° (ESE) 07:53:01 435.675
XW-2D 17 Dec 07:47:07 07:50:29 29° 295° (WNW) 07:53:50 145.860 - 145.880
KAITUO 1B 17 Dec 07:47:26 07:50:58 37° 293° (WNW) 07:54:28 145.475/437.950
STRAND 1 17 Dec 07:54:02 07:58:38 33° 265° (W) 08:03:15 437.568
FO-29 17 Dec 08:03:01 08:10:55 81° 255° (WSW) 08:18:40 435.910
XW-2B 17 Dec 08:03:22 08:06:24 22° 298° (WNW) 08:09:25 145.730 - 145.750
SEEDS 17 Dec 08:04:25 08:08:43 78° 105° (ESE) 08:12:57 437.485
AO-7 17 Dec 08:07:01 08:12:05 18° 335° (NNW) 08:17:08 .
UWE-3 17 Dec 08:09:17 08:13:31 52° 100° (E) 08:17:50 435.000/436.395/437.385
XW-2F 17 Dec 08:12:56 08:15:43 19° 300° (WNW) 08:18:30 145.980 - 146.000
AAUSAT CUBESAT 2 17 Dec 08:14:12 08:18:16 47° 99° (E) 08:22:17 437.432
CUBEBUG 2 17 Dec 08:15:57 08:20:14 85° 284° (WNW) 08:24:35 437.445
ZACube-1 17 Dec 08:27:34 08:31:46 45° 99° (E) 08:36:02 437.345
XW-2C 17 Dec 08:31:49 08:33:44 13° 304° (NW) 08:35:38 145.795 - 145.815
CUTE 1.7 + AOD 2 17 Dec 08:33:33 08:37:35 39° 293° (WNW) 08:41:34 437.475
O/OREOS (USA 219) 17 Dec 08:38:45 08:43:17 63° 115° (ESE) 08:47:48 437.305
Oscar 11 17 Dec 08:42:04 08:46:11 38° 97° (E) 08:50:15 .
DELFI C3 17 Dec 08:49:58 08:50:54 11° 85° (E) 08:51:50 145.870
NO-84 17 Dec 08:51:01 08:54:14 75° 350° (N) 08:57:44 435.350 FM
PRISM 17 Dec 08:53:38 08:56:54 23° 60° (ENE) 09:00:10 437.425
CUTE-I 17 Dec 08:58:26 09:02:21 21° 307° (NW) 09:06:16 437.470
AO-73 17 Dec 08:59:34 09:03:57 79° 105° (ESE) 09:08:24 145.935
XW-2A 17 Dec 08:59:36 09:02:58 54° 289° (WNW) 09:06:20 145.665 - 145.685
TIGRISAT 17 Dec 09:05:15 09:09:29 68° 72° (ENE) 09:13:43 435.000
UNISAT 6 17 Dec 09:09:21 09:13:37 80° 74° (ENE) 09:17:54 437.425
HO-68 17 Dec 09:26:55 09:33:28 40° 305° (NW) 09:39:58 435.675
POLYITAN 1 17 Dec 09:36:47 09:37:57 11° 51° (NE) 09:39:08 437.675
SEEDS 17 Dec 09:41:05 09:43:53 17° 303° (WNW) 09:46:39 437.485
UWE-3 17 Dec 09:46:16 09:49:44 24° 299° (WNW) 09:53:15 435.000/436.395/437.385
AAUSAT CUBESAT 2 17 Dec 09:50:05 09:53:30 25° 298° (WNW) 09:56:54 437.432
FO-29 17 Dec 09:51:03 09:57:00 23° 276° (W) 10:02:54 435.910
CUBEBUG 2 17 Dec 09:53:55 09:56:16 15° 305° (NW) 09:58:37 437.445
Max Valier Satellite 17 Dec 09:54:18 09:57:40 31° 96° (E) 10:01:02 145.860
AO-7 17 Dec 09:58:30 10:01:38 13° 2° (N) 10:04:48 .
QB50P2 17 Dec 10:00:42 10:03:35 18° 57° (ENE) 10:06:29 145.880/145.840
DUCHIFAT 1 17 Dec 10:01:36 10:03:49 14° 54° (NE) 10:06:01 145.980
ZACube-1 17 Dec 10:04:11 10:07:53 28° 297° (WNW) 10:11:38 437.345
AIST 2D 17 Dec 10:11:52 10:15:11 39° 69° (ENE) 10:18:32 435.315
EO-88 17 Dec 10:15:01 10:18:27 35° 97° (E) 10:21:51 145.990 - 145.960
Oscar 11 17 Dec 10:18:22 10:22:15 32° 296° (WNW) 10:26:07 .
O/OREOS (USA 219) 17 Dec 10:19:10 10:23:04 27° 316° (NW) 10:26:57 437.305
DELFI C3 17 Dec 10:22:20 10:26:19 84° 103° (ESE) 10:30:15 145.870
PRISM 17 Dec 10:27:49 10:31:53 53° 259° (W) 10:35:59 437.425
NO-84 17 Dec 10:28:14 10:31:38 76° 12° (NNE) 10:35:20 435.350 FM
NANOSAT C BR1 17 Dec 10:28:20 10:31:45 25° 61° (ENE) 10:35:11 145.865
YUBILEINY 17 Dec 10:30:30 10:32:57 11° 25° (NNE) 10:35:24 435.215
AO-73 17 Dec 10:36:46 10:39:42 18° 303° (WNW) 10:42:39 145.935
LO-87 17 Dec 10:37:52 10:38:22 10° 86° (E) 10:38:51 145.935 - 145.965
Oscar 19 17 Dec 10:43:21 10:44:58 11° 44° (NE) 10:46:37 437.125/150
TIGRISAT 17 Dec 10:43:49 10:46:39 17° 271° (W) 10:49:29 435.000
EO-79 17 Dec 10:45:13 10:49:05 37° 66° (ENE) 10:52:59 145.935-145.965
UNISAT 6 17 Dec 10:48:30 10:50:55 15° 273° (W) 10:53:20 437.425
ISS 17 Dec 11:06:00 11:07:43 14° 143° (SE) 11:09:26 437.550
POLYITAN 1 17 Dec 11:08:47 11:12:54 61° 70° (ENE) 11:17:03 437.675
HO-68 17 Dec 11:15:56 11:19:23 14° 328° (NNW) 11:22:49 435.675
ESTCUBE 1 17 Dec 11:17:06 11:20:49 24° 92° (E) 11:24:31 437.505/2401.250
Max Valier Satellite 17 Dec 11:28:11 11:31:27 29° 295° (WNW) 11:34:44 145.860
DUCHIFAT 1 17 Dec 11:34:40 11:38:50 84° 74° (ENE) 11:43:02 145.980
QB50P2 17 Dec 11:34:44 11:38:56 71° 257° (WSW) 11:43:09 145.880/145.840
AO-91 17 Dec 11:40:49 11:44:00 20° 60° (ENE) 11:46:58 145.960
AIST 2D 17 Dec 11:45:48 11:48:30 20° 268° (W) 11:51:14 435.315
AO-7 17 Dec 11:45:50 11:51:19 20° 30° (NNE) 11:56:51 .
Gurwin Techsat 1B 17 Dec 11:46:50 11:50:59 24° 55° (NE) 11:55:10 435.225
nSIGHT-1 17 Dec 11:47:33 11:50:19 26° 153° (SSE) 11:53:05 .
EO-88 17 Dec 11:48:54 11:51:58 25° 296° (WNW) 11:55:01 145.990 - 145.960
DELFI C3 17 Dec 11:58:17 12:00:30 15° 304° (NW) 12:02:43 145.870
BUGSAT 1 17 Dec 12:03:03 12:06:53 45° 68° (ENE) 12:10:44 437.445
NANOSAT C BR1 17 Dec 12:03:13 12:07:15 47° 261° (W) 12:11:19 145.865
NO-84 17 Dec 12:05:25 12:08:49 43° 210° (SSW) 12:12:29 435.350 FM
LO-87 17 Dec 12:08:45 12:12:19 86° 284° (WNW) 12:15:53 145.935 - 145.965
Oscar 19 17 Dec 12:18:14 12:23:08 46° 65° (ENE) 12:28:05 437.125/150
EO-79 17 Dec 12:21:15 12:24:55 29° 265° (W) 12:28:38 145.935-145.965
YUBILEINY 17 Dec 12:26:01 12:33:41 31° 56° (NE) 12:41:15 435.215
VELOX 1 17 Dec 12:36:45 12:40:20 23° 92° (E) 12:43:52 145.980
ISS 17 Dec 12:40:28 12:43:36 41° 161° (SSE) 12:46:44 437.550
M-CUBED/EXP-1 PRIME 17 Dec 12:44:20 12:46:39 14° 42° (NE) 12:48:59 437.505
POLYITAN 1 17 Dec 12:46:07 12:49:05 19° 270° (W) 12:52:03 437.675
SPROUT 17 Dec 12:52:32 12:56:40 49° 100° (E) 13:00:48 437.525
ESTCUBE 1 17 Dec 12:53:28 12:57:55 53° 292° (WNW) 13:02:19 437.505/2401.250
DUCHIFAT 1 17 Dec 13:12:59 13:15:06 14° 273° (W) 13:17:12 145.980
AO-91 17 Dec 13:15:34 13:20:10 67° 257° (WSW) 13:24:19 145.960
DX 1 17 Dec 13:22:50 13:25:38 17° 89° (E) 13:28:25 434.975-435.025
nSIGHT-1 17 Dec 13:23:00 13:26:11 58° 173° (S) 13:29:23 .
Gurwin Techsat 1B 17 Dec 13:25:08 13:30:27 76° 255° (WSW) 13:35:50 435.225
AO-7 17 Dec 13:34:26 13:42:18 49° 54° (NE) 13:50:12 .
RS-15 17 Dec 13:35:32 13:45:48 33° 105° (ESE) 13:55:56 29.354- 29.394
ITAMSAT 1 17 Dec 13:38:41 13:42:34 22° 53° (NE) 13:46:27 435.822/435.867
BUGSAT 1 17 Dec 13:39:15 13:42:28 23° 267° (W) 13:45:41 437.445
LO-87 17 Dec 13:43:58 13:45:07 11° 304° (NW) 13:46:17 145.935 - 145.965
NO-84 17 Dec 13:44:11 13:45:27 11° 228° (SW) 13:46:44 435.350 FM
50 SAT 17 Dec 13:49:44 13:52:22 23° 95° (E) 13:54:58 437.505
Oscar 19 17 Dec 13:57:59 14:02:37 33° 265° (W) 14:07:19 437.125/150
VELOX 1 17 Dec 14:12:44 14:17:03 52° 292° (WNW) 14:21:19 145.980
M-CUBED/EXP-1 PRIME 17 Dec 14:15:41 14:20:07 56° 62° (ENE) 14:24:41 437.505
ISS 17 Dec 14:16:35 14:19:52 63° 181° (S) 14:23:09 437.550
YUBILEINY 17 Dec 14:22:46 14:31:40 85° 261° (W) 14:40:27 435.215
SPROUT 17 Dec 14:28:52 14:32:20 25° 299° (WNW) 14:35:47 437.525
ESTCUBE 1 17 Dec 14:32:33 14:33:45 11° 312° (NW) 14:34:58 437.505/2401.250
UKube-1 17 Dec 14:35:16 14:39:27 47° 100° (E) 14:43:36 .
ITUPSAT 1 17 Dec 14:45:38 14:47:57 13° 85° (E) 14:50:16 437.325
SO-50 17 Dec 14:46:48 14:50:12 22° 116° (ESE) 14:53:38 436.795
HO-68 17 Dec 14:47:43 14:48:35 10° 22° (NNE) 14:49:27 435.675
DX 1 17 Dec 14:57:58 15:02:21 73° 288° (WNW) 15:06:40 434.975-435.025
nSIGHT-1 17 Dec 14:59:04 15:02:13 51° 193° (SSW) 15:05:22 .
MOZHAYETS 4 17 Dec 15:01:34 15:05:28 26° 93° (E) 15:09:20
DOVE 4 17 Dec 15:04:11 15:08:13 24° 59° (ENE) 15:12:07 437.250
Gurwin Techsat 1B 17 Dec 15:08:31 15:11:20 14° 276° (W) 15:14:10 435.225
ITAMSAT 1 17 Dec 15:16:16 15:21:29 83° 254° (WSW) 15:26:44 435.822/435.867
50 SAT 17 Dec 15:21:33 15:24:18 27° 294° (WNW) 15:27:01 437.505
O/OREOS (USA 219) 17 Dec 15:24:37 15:27:25 16° 33° (NNE) 15:30:10 437.305
AO-7 17 Dec 15:26:52 15:35:00 57° 257° (WSW) 15:43:14 .
CUTE-I 17 Dec 15:30:11 15:32:23 13° 44° (NE) 15:34:36 437.470
RS-15 17 Dec 15:44:28 15:56:51 85° 131° (SE) 16:08:59 29.354- 29.394
M-CUBED/EXP-1 PRIME 17 Dec 15:51:02 15:54:45 25° 262° (W) 15:58:37 437.505
BEESAT 17 Dec 15:51:11 15:55:47 46° 99° (E) 16:00:22 436.000
VELOX 1 17 Dec 15:51:44 15:52:32 10° 312° (NW) 15:53:21 145.980
ISS 17 Dec 15:53:02 15:56:07 37° 201° (SSW) 15:59:11 437.550
XW-2F 17 Dec 15:54:16 15:54:51 10° 53° (NE) 15:55:25 145.980 - 146.000
XW-2C 17 Dec 16:10:54 16:13:11 15° 57° (ENE) 16:15:27 145.795 - 145.815
UKube-1 17 Dec 16:11:40 16:15:17 26° 299° (WNW) 16:18:52 .
YUBILEINY 17 Dec 16:20:38 16:27:14 25° 285° (WNW) 16:33:48 435.215
ITUPSAT 1 17 Dec 16:21:45 16:26:34 80° 105° (ESE) 16:31:21 437.325
SO-50 17 Dec 16:25:42 16:30:12 77° 317° (NW) 16:34:47 436.795
HO-68 17 Dec 16:28:17 16:33:58 26° 47° (NE) 16:39:39 435.675
KKS-1 17 Dec 16:29:28 16:30:05 10° 84° (E) 16:30:42 437.445
CUBESAT XI-V 17 Dec 16:33:22 16:37:58 48° 99° (E) 16:42:31 437.345
nSIGHT-1 17 Dec 16:35:34 16:37:59 20° 212° (SSW) 16:40:24 .
DX 1 17 Dec 16:35:38 16:37:47 14° 309° (NW) 16:39:58 434.975-435.025
MOZHAYETS 4 17 Dec 16:38:23 16:42:52 51° 292° (WNW) 16:47:21
DOVE 4 17 Dec 16:40:19 16:45:30 71° 257° (WSW) 16:50:30 437.250
NUDT-PHONESAT 17 Dec 16:49:44 16:52:42 23° 63° (ENE) 16:55:44 437.300
LilacSat-2 17 Dec 16:50:08 16:53:38 35° 67° (ENE) 16:57:11 437.200
